STARLINK-35598, 66509

Orbit data source: Space-Track

STARLINK-35598, 66509 is a payload satellite owned by SpaceX/Seattle (US) in LEO that was launched on Sat, 15 Nov 2025 UTC via an FALCON 9 launch vehicle from the Air Force Eastern Test Range (AFETR). Payload-class satellites include a variety of spacecraft equipped with specific instruments for various scientific and technological missions. These include communications satellites like Starlink; space stations such as the ISS; scientific satellites like the Hubble; Earth observation satellites from companies like Planet Labs, Umbra, and HawkEye 360; GPS; miniature CubeSats for education and research; and military/defense satellites.

Loading next visibility...
Identifier
66509, 2025-263AA
Orbit
LEO
Country
Flag of USUS
Related business
Manufacturer
SpaceX/Seattle
Mission
Operational Commercial Communications
Bus & Motor
STARLINK V2MO, Unknown motor
Mass
575 kg wet, ~530 kg dry
Launch date (UTC)
2025-11-15 (7 months ago)
Launch vehicle
FALCON 9
Launch site
Air Force Eastern Test Range (AFETR)
Object type
Payload
Rocket body
Debris
Shape & HBR
Box + 2 Pan, 17.7 m
Radar Cross Section
36.964 m², Large (>1 m²)

Expand to show TLE details & history
Last TLE update: 14 hours ago

TLE from 14 hours ago
0 STARLINK-35598
1 66509U 25263AA  26171.27649535  .00006233  00000-0  23579-3 0  9995
2 66509  43.0026 131.7332 0001363 260.3009  99.7688 15.27584007 34582
Epoch: 2026-06-20T06:38Z
TLE epoch observation values (Epoch: 2026-06-20T06:38:09.198Z)
Latitude
-0.00006°
Longitude
123.70137°
Altitude
482.972 km
Speed
7.626 km/s
True Right ascension
08h 46m 55s
True Declination
0° 00' 00"
Sunlit
Object was in daylight at epoch
Visualization orbit readout
Latitude
Unknown
Longitude
Unknown
Altitude
Unknown
Speed
Unknown
Apparent Right ascension
Unknown
Apparent Declination
Unknown
Sunlit
N/A
Visualization observer readout
Local Sidereal Time
07:17:47
Azimuth
Unknown
Elevation
Unknown
Doppler factor
Unknown
Orbital elements
Apogee altitude
485.917 km
Perigee altitude
484.046 km
Semi-major axis
6,863.119 km
Eccentricity
0.00014
Inclination
43.0026°
RAAN
131.7332°
Arg. of periapsis
260.3009°
True anomaly
99.78419°
Mean anomaly
99.7688°
Eccentric anomaly
99.7765°
Mean motion
3.81734 °/min
Orbital period
94.31 mins
BSTAR
0.00023579
Loading maneuver chart data...
Computing Atmospheric mass density...
Loading historical data...
Loading historical data...
Loading historical data...
Loading historical data...
Loading historical data...
Loading historical data...
Loading historical data...

Documentation

Showing up to 5 results
|